Hourly Data Report for December 04, 2018

TORONTO CITY
ONTARIO
Current Station Operator: ECCC - MSC

43°40'00.000" N
79°24'00.000" W
112.50 m
6158355
71508
XTO

Download Data

Hourly Data (December 2018)
Hourly Data Report for December 4, 2018
TIME
LST
Temp Definition
°C
Dew Point Definition
°C
Rel Hum Definition
%
Precip. Amount Definition
mm

Wind Dir Definition
10's deg

Wind Spd Definition
km/h
Visibility Definition
km
Stn Press Definition
kPa
Hmdx Definition


Wind Chill Definition


Weather Definition


00:00 -0.9 -6.3 67 0.0 LegendMM LegendMM   100.16     LegendNANA
01:00 -0.9 -5.6 70 0.0 LegendMM LegendMM   100.18     LegendNANA
02:00 -0.9 -5.9 69 0.0 LegendMM LegendMM   100.23     LegendNANA
03:00 -1.5 -6.6 68 0.0 LegendMM LegendMM   100.34     LegendNANA
04:00 -2.4 -7.2 70 0.0 LegendMM LegendMM   100.38     LegendNANA
05:00 -2.5 -7.1 71 0.0 LegendMM LegendMM   100.45     LegendNANA
06:00 -3.1 -7.5 72 0.0 LegendMM LegendMM   100.51     LegendNANA
07:00 -3.0 -8.3 67 0.0 LegendMM LegendMM   100.58     LegendNANA
08:00 -3.3 -8.8 66 0.0 LegendMM LegendMM   100.65     LegendNANA
09:00 -3.5 -8.9 66 0.0 LegendMM LegendMM   100.69     LegendNANA
10:00 -3.3 -9.1 64 0.0 LegendMM LegendMM   100.73     LegendNANA
11:00 -2.6 -9.2 60 0.0 LegendMM LegendMM   100.72     LegendNANA
12:00 -2.2 -9.3 58 0.0 LegendMM LegendMM   100.66     LegendNANA
13:00 -0.9 -9.1 54 0.0 LegendMM LegendMM   100.60     LegendNANA
14:00 -0.9 -9.2 53 0.0 LegendMM LegendMM   100.54     LegendNANA
15:00 -0.4 -9.4 50 0.0 LegendMM LegendMM   100.50     LegendNANA
16:00 -0.9 -7.3 62 0.0 LegendMM LegendMM   100.51     LegendNANA
17:00 -1.2 -6.7 66 0.0 LegendMM LegendMM   100.51     LegendNANA
18:00 -1.5 -6.8 67 0.0 LegendMM LegendMM   100.52     LegendNANA
19:00 -1.7 -6.5 70 0.0 LegendMM LegendMM   100.53     LegendNANA
20:00 -1.4 -6.4 69 0.0 LegendMM LegendMM   100.54     LegendNANA
21:00 -1.7 -6.6 69 0.0 LegendMM LegendMM   100.53     LegendNANA
22:00 -1.9 -6.5 71 0.0 LegendMM LegendMM   100.52     LegendNANA
23:00 -1.9 -6.7 70 0.0 LegendMM LegendMM   100.49     LegendNANA

Notes on Data Quality.

Legend

  • E = Estimated
  • M = Missing
  • NA = Not Available*
  • [empty] = Indicates an unobserved value
Date modified: